Regional Weather Roundup
Issued by NWS

Home | Current Version | Previous Version | Graphics & Text | Print | Product List | Glossary On
Versions: 1 2 3 4 5 6 7 8 9 10 11 12 13 14 15 16 17 18 19 20 21 22 23 24 25 26 27 28 29 30 31 32 33 34 35 36 37 38 39 40 41 42 43 44 45 46 47 48 49 50
285
ASUS44 KJAN 231710
RWRMS

MISSISSIPPI HOURLY WEATHER ROUNDUP
NATIONAL WEATHER SERVICE JACKSON MS
1100 AM CST SUN NOV 23 2014

NOTE: "FAIR: INDICATES FEW OR NO CLOUDS BELOW 12,000 FEET WITH NO
SIGNIFICANT WEATHER AND/OR OBSTRUCTIONS TO VISIBILITY.

MSZ001>002-007>008-010>013-018>021-025>028-034>036-231800-
NORTHWEST MISSISSIPPI

CITY           SKY/WX    TMP DP  RH WIND       PRES   REMARKS
CLARKSDALE     CLOUDY    59  59 100 E13       29.52F
CLEVELAND      RAIN      60  60 100 SE16      29.50F
GREENWOOD      LGT RAIN  62  60  93 SE15      29.52F
GREENVILLE     CLOUDY    62  60  93 SE15      29.48F FOG
GRENADA        LGT RAIN  57  57 100 E16       29.54F
OLIVE BRANCH   RAIN      57  57 100 SE12      29.59F FOG
OXFORD         CLOUDY    57  55  94 SE12      29.60F FOG
TUNICA         RAIN      59  55  88 E10       29.55F
$$

MSZ003>006-009-014>017-022>024-029>033-037>039-231800-
NORTHEAST MISSISSIPPI

CITY           SKY/WX    TMP DP  RH WIND       PRES   REMARKS
COLUMBUS AFB   LGT RAIN  61  61 100 E10       29.58F
CORINTH        LGT RAIN  59  57  94 SE12      29.63F
GOLDN TRIANGLE CLOUDY    61  61 100 E14       29.60F FOG
STARKVILLE     CLOUDY    61  59  94 E9        29.57F
TUPELO         LGT RAIN  60  58  92 MISG      29.63F
$$

MSZ040-058-231800-
CENTRAL MISSISSIPPI

CITY           SKY/WX    TMP DP  RH WIND       PRES   REMARKS
JACKSON INTL   CLOUDY    66  63  90 S14G23    29.58S
JACKSON HAWKNS CLOUDY    66  63  90 S14       29.56F
MERIDIAN KEY   LGT RAIN  67  65  93 S16       29.62S
MERIDIAN NAS   LGT RAIN  64  63  96 S12G20    29.63S FOG
RAYMOND        PTSUNNY   66  63  88 S16G22    29.56F
VICKSBURG      LGT RAIN  65  62  90 S16G26    29.54F
$$

MSZ059>079-231800-
SOUTH MISSISSIPPI

CITY           SKY/WX    TMP DP  RH WIND       PRES   REMARKS
BROOKHAVEN     PTSUNNY   66  63  88 S13G28    29.62F
HATTIESBURG    RAIN      67  61  81 S12       29.62F
MCCOMB         CLOUDY    65  59  81 SW10G23   29.64F
NATCHEZ        CLOUDY    64  57  77 S14G22    29.60F
PINE BELT      CLOUDY    64  61  88 S13       29.61F
$$

MSZ080>082-231800-
COASTAL MISSISSIPPI

CITY           SKY/WX    TMP DP  RH WIND       PRES   REMARKS
BAY ST LOUIS   PTSUNNY   63  57  82 MISG      29.70S
BILOXI         LGT RAIN  61  61 100 S13       29.70F
PASCAGOULA     LGT RAIN  65  60  84 SW10G21   29.76R
GULFPORT       LGT RAIN  62  59  90 S12G21    29.70F
$$



USA.gov is the U.S. government's official web portal to all federal, state and local government web resources and services.